Darstellungsparameter: Aktuell verwendete Einstellungen:
Skalierung der Graphiken ... ?
xyx+y,   Skalierungsfaktor:      Skalierung: Modus: x, Faktor: 1
Darstellungszeitraum ... ?
Vom - - bis: - -   Zeitraum: 05.11.2020 - 06.11.2020
Min/Max/Avg-Anzeige ... ?
Zeige MMA aktuell
Zeige MMA Monat
Zeige MMA alles
Zeige --A aktuell
Zeige --A Monat
Zeige --A alles
Keine MMA-Anzeige
MMA:
Minimum Maximum Average (ber die Originaldaten)
MMA-Basis: 14.04.2020 - 16.05.2020
Quicknavigation für Darstellung... ?
Tage:      1T, 2T, 3T, 5T -1T -2T -3T -5T +1T +2T +3T +5T
Wochen: 1W, 2W, 3W -1W -2W -3W +1W +2W +3W
Monate: 1M, 3M, 6M -1M -3M -6M +1M +3M +6M
Jahre:    1J, 3J, 5J, 10J -1J -3J -5J -10J +1J +3J +5J +10J
Nutze für die Darstellung ... ?
Originaldaten oder Mittelwerte auf ...
Stundenbasis Tagesbasis Wochenbasis
Monatsbasis Jahresbasis      Datenbasis: Original-Daten
Darstellen als:
Statistik (Auto) Statistik J:M      Darstellung:
Zur Graphik,    zurück zur Übersicht aller Sensoren.
 
Tabellarische Datenbersicht: ?
 
Sensor: Nr:Datum:Temp:Abs-Feuchte:Windchill:Wind:
Aussen-T/F 1 05-11-2020 00:00:00 2 C 5.33 g/m*3 2 C 0 km/h
2 05-11-2020 00:05:00 1.9 C 5.3 g/m*3 1.9 C 0 km/h
3 05-11-2020 00:10:00 1.8 C 5.21 g/m*3 1.8 C 0 km/h
4 05-11-2020 00:15:00 1.8 C 5.21 g/m*3 1.8 C 0 km/h
5 05-11-2020 00:20:00 1.8 C 5.26 g/m*3 1.8 C 0 km/h
6 05-11-2020 00:25:00 1.8 C 5.26 g/m*3 1.8 C 0 km/h
7 05-11-2020 00:30:00 1.7 C 5.23 g/m*3 1.7 C 0 km/h
8 05-11-2020 00:35:00 1.7 C 5.23 g/m*3 1.7 C 0 km/h
9 05-11-2020 00:40:00 1.7 C 5.23 g/m*3 1.7 C 0 km/h
10 05-11-2020 00:45:00 1.7 C 5.23 g/m*3 1.7 C 0 km/h
11 05-11-2020 00:50:00 1.7 C 5.23 g/m*3 1.7 C 0 km/h
12 05-11-2020 00:55:00 1.7 C 5.23 g/m*3 1.7 C 0 km/h
13 05-11-2020 01:00:00 1.7 C 5.23 g/m*3 1.7 C 0 km/h
14 05-11-2020 01:05:00 1.6 C 5.19 g/m*3 1.6 C 0 km/h
15 05-11-2020 01:10:00 1.6 C 5.19 g/m*3 1.6 C 0 km/h
16 05-11-2020 01:15:00 1.5 C 5.16 g/m*3 1.5 C 0 km/h
17 05-11-2020 01:20:00 1.5 C 5.16 g/m*3 1.5 C 0 km/h
18 05-11-2020 01:25:00 1.6 C 5.19 g/m*3 1.6 C 1.6 km/h
19 05-11-2020 01:30:00 1.7 C 5.23 g/m*3 1.7 C 1.6 km/h
20 05-11-2020 01:35:00 1.8 C 5.26 g/m*3 1.8 C 0 km/h
21 05-11-2020 01:40:00 1.9 C 5.3 g/m*3 1.9 C 0 km/h
22 05-11-2020 01:45:00 2 C 5.33 g/m*3 2 C 0 km/h
23 05-11-2020 01:50:00 2.1 C 5.37 g/m*3 2.1 C 0 km/h
24 05-11-2020 01:55:00 2.1 C 5.37 g/m*3 2.1 C 3.2 km/h
25 05-11-2020 02:00:00 2.2 C 5.41 g/m*3 2.2 C 3.2 km/h
Sensor: Nr:Datum:Temp:Abs-Feuchte:Windchill:Wind:
Aussen-T/F 26 05-11-2020 02:05:00 2.2 C 5.41 g/m*3 2.2 C 0 km/h
27 05-11-2020 02:10:00 2.2 C 5.41 g/m*3 2.2 C 0 km/h
28 05-11-2020 02:15:00 2.2 C 5.41 g/m*3 2.2 C 0 km/h
29 05-11-2020 02:20:00 2.2 C 5.41 g/m*3 2.2 C 0 km/h
30 05-11-2020 02:25:00 2.2 C 5.41 g/m*3 2.2 C 0 km/h
31 05-11-2020 02:30:00 2.2 C 5.41 g/m*3 2.2 C 0 km/h
32 05-11-2020 02:35:00 2.2 C 5.41 g/m*3 2.2 C 0 km/h
33 05-11-2020 02:40:00 2.2 C 5.41 g/m*3 2.2 C 0 km/h
34 05-11-2020 02:45:00 2.2 C 5.41 g/m*3 2.2 C 1.6 km/h
35 05-11-2020 02:50:00 2.2 C 5.41 g/m*3 2.2 C 0 km/h
36 05-11-2020 02:55:00 2.2 C 5.41 g/m*3 2.2 C 0 km/h
37 05-11-2020 03:00:00 2.2 C 5.41 g/m*3 2.2 C 1.6 km/h
38 05-11-2020 03:05:00 2.2 C 5.41 g/m*3 2.2 C 0 km/h
39 05-11-2020 03:10:00 2.2 C 5.41 g/m*3 2.2 C 1.6 km/h
40 05-11-2020 03:15:00 2.1 C 5.37 g/m*3 2.1 C 0 km/h
41 05-11-2020 03:20:00 2.1 C 5.37 g/m*3 2.1 C 0 km/h
42 05-11-2020 03:25:00 2.1 C 5.37 g/m*3 2.1 C 0 km/h
43 05-11-2020 03:30:00 2.1 C 5.37 g/m*3 2.1 C 0 km/h
44 05-11-2020 03:35:00 2.1 C 5.37 g/m*3 2.1 C 0 km/h
45 05-11-2020 03:40:00 2.1 C 5.37 g/m*3 2.1 C 0 km/h
46 05-11-2020 03:45:00 2.1 C 5.37 g/m*3 2.1 C 0 km/h
47 05-11-2020 03:50:00 2 C 5.33 g/m*3 2 C 0 km/h
48 05-11-2020 03:55:00 2 C 5.33 g/m*3 2 C 0 km/h
49 05-11-2020 04:00:00 2 C 5.33 g/m*3 2 C 0 km/h
50 05-11-2020 04:05:00 2 C 5.33 g/m*3 2 C 0 km/h
Sensor: Nr:Datum:Temp:Abs-Feuchte:Windchill:Wind:
Aussen-T/F 51 05-11-2020 04:10:00 2 C 5.33 g/m*3 2 C 0 km/h
52 05-11-2020 04:15:00 2.1 C 5.37 g/m*3 2.1 C 0 km/h
53 05-11-2020 04:20:00 2 C 5.33 g/m*3 2 C 0 km/h
54 05-11-2020 04:25:00 2.1 C 5.37 g/m*3 2.1 C 0 km/h
55 05-11-2020 04:30:00 2.1 C 5.43 g/m*3 2.1 C 0 km/h
56 05-11-2020 04:35:00 2.1 C 5.43 g/m*3 2.1 C 0 km/h
57 05-11-2020 04:40:00 2.1 C 5.43 g/m*3 2.1 C 0 km/h
58 05-11-2020 04:45:00 2.2 C 5.46 g/m*3 2.2 C 0 km/h
59 05-11-2020 04:50:00 2.2 C 5.46 g/m*3 2.2 C 0 km/h
60 05-11-2020 04:55:00 2.2 C 5.46 g/m*3 2.2 C 0 km/h
61 05-11-2020 05:00:00 2.2 C 5.46 g/m*3 2.2 C 0 km/h
62 05-11-2020 05:05:00 2.2 C 5.46 g/m*3 2.2 C 0 km/h
63 05-11-2020 05:10:00 2.2 C 5.46 g/m*3 2.2 C 0 km/h
64 05-11-2020 05:15:00 2.3 C 5.5 g/m*3 2.3 C 0 km/h
65 05-11-2020 05:20:00 2.2 C 5.46 g/m*3 2.2 C 0 km/h
66 05-11-2020 05:25:00 2.2 C 5.46 g/m*3 2.2 C 0 km/h
67 05-11-2020 05:30:00 2.2 C 5.46 g/m*3 2.2 C 0 km/h
68 05-11-2020 05:35:00 2.2 C 5.46 g/m*3 2.2 C 0 km/h
69 05-11-2020 05:40:00 2.3 C 5.5 g/m*3 2.3 C 0 km/h
70 05-11-2020 05:45:00 2.3 C 5.5 g/m*3 2.3 C 0 km/h
71 05-11-2020 05:50:00 2.3 C 5.5 g/m*3 2.3 C 0 km/h
72 05-11-2020 05:55:00 2.3 C 5.5 g/m*3 2.3 C 0 km/h
73 05-11-2020 06:00:00 2.3 C 5.5 g/m*3 2.3 C 0 km/h
74 05-11-2020 06:05:00 2.3 C 5.5 g/m*3 2.3 C 0 km/h
75 05-11-2020 06:10:00 2.3 C 5.5 g/m*3 2.3 C 0 km/h
Sensor: Nr:Datum:Temp:Abs-Feuchte:Windchill:Wind:
Aussen-T/F 76 05-11-2020 06:15:00 2.3 C 5.5 g/m*3 2.3 C 0 km/h
77 05-11-2020 06:20:00 2.3 C 5.5 g/m*3 2.3 C 0 km/h
78 05-11-2020 06:25:00 2.3 C 5.5 g/m*3 2.3 C 0 km/h
79 05-11-2020 06:30:00 2.3 C 5.5 g/m*3 2.3 C 0 km/h
80 05-11-2020 06:35:00 2.3 C 5.5 g/m*3 2.3 C 0 km/h
81 05-11-2020 06:40:00 2.3 C 5.5 g/m*3 2.3 C 0 km/h
82 05-11-2020 06:45:00 2.3 C 5.5 g/m*3 2.3 C 0 km/h
83 05-11-2020 06:50:00 2.3 C 5.5 g/m*3 2.3 C 0 km/h
84 05-11-2020 06:55:00 2.3 C 5.5 g/m*3 2.3 C 0 km/h
85 05-11-2020 07:00:00 2.2 C 5.46 g/m*3 2.2 C 0 km/h
86 05-11-2020 07:05:00 2.2 C 5.46 g/m*3 2.2 C 0 km/h
87 05-11-2020 07:10:00 2.2 C 5.46 g/m*3 2.2 C 0 km/h
88 05-11-2020 07:15:00 2.2 C 5.46 g/m*3 2.2 C 0 km/h
89 05-11-2020 07:20:00 2.2 C 5.46 g/m*3 2.2 C 0 km/h
90 05-11-2020 07:25:00 2.3 C 5.5 g/m*3 2.3 C 0 km/h
91 05-11-2020 07:30:00 2.3 C 5.5 g/m*3 2.3 C 0 km/h
92 05-11-2020 07:35:00 2.3 C 5.5 g/m*3 2.3 C 0 km/h
93 05-11-2020 07:40:00 2.3 C 5.5 g/m*3 2.3 C 0 km/h
94 05-11-2020 07:55:00 3.6 C 6 g/m*3 3.6 C 4.8 km/h
95 05-11-2020 12:10:00 3.6 C 6 g/m*3 3.6 C 1.6 km/h
96 05-11-2020 12:15:00 3.6 C 6 g/m*3 3.6 C 0 km/h
97 05-11-2020 12:20:00 3.7 C 6.04 g/m*3 3.7 C 1.6 km/h
98 05-11-2020 12:25:00 3.8 C 6.09 g/m*3 3.8 C 3.2 km/h
99 05-11-2020 12:30:00 3.8 C 6.09 g/m*3 2.21 C 6.4 km/h
100 05-11-2020 12:35:00 3.7 C 6.04 g/m*3 3.7 C 4.8 km/h
Sensor: Nr:Datum:Temp:Abs-Feuchte:Windchill:Wind:
Aussen-T/F 101 05-11-2020 12:40:00 3.8 C 6.09 g/m*3 2.21 C 6.4 km/h
102 05-11-2020 12:45:00 3.8 C 6.09 g/m*3 3.8 C 4.8 km/h
103 05-11-2020 12:50:00 3.9 C 6.13 g/m*3 3.9 C 3.2 km/h
104 05-11-2020 12:55:00 3.9 C 6.13 g/m*3 3.9 C 1.6 km/h
105 05-11-2020 13:00:00 4 C 6.17 g/m*3 4 C 0 km/h
106 05-11-2020 13:05:00 4 C 6.17 g/m*3 4 C 3.2 km/h
107 05-11-2020 13:10:00 4 C 6.17 g/m*3 4 C 1.6 km/h
108 05-11-2020 13:15:00 4.1 C 6.21 g/m*3 4.1 C 0 km/h
109 05-11-2020 13:20:00 4.2 C 6.25 g/m*3 4.2 C 3.2 km/h
110 05-11-2020 13:25:00 4.2 C 6.25 g/m*3 4.2 C 3.2 km/h
111 05-11-2020 13:30:00 4.3 C 6.29 g/m*3 4.3 C 3.2 km/h
112 05-11-2020 13:35:00 4.3 C 6.29 g/m*3 4.3 C 3.2 km/h
113 05-11-2020 13:40:00 4.3 C 6.29 g/m*3 4.3 C 4.8 km/h
114 05-11-2020 13:45:00 4.3 C 6.29 g/m*3 4.3 C 3.2 km/h
115 05-11-2020 13:50:00 4.3 C 6.29 g/m*3 4.3 C 4.8 km/h
116 05-11-2020 13:55:00 4.3 C 6.29 g/m*3 4.3 C 1.6 km/h
117 05-11-2020 14:00:00 4.2 C 6.25 g/m*3 4.2 C 4.8 km/h
118 05-11-2020 14:05:00 4.1 C 6.21 g/m*3 4.1 C 3.2 km/h
119 05-11-2020 14:10:00 4.1 C 6.21 g/m*3 4.1 C 0 km/h
120 05-11-2020 14:15:00 4.1 C 6.21 g/m*3 4.1 C 3.2 km/h
121 05-11-2020 14:20:00 4.1 C 6.21 g/m*3 4.1 C 3.2 km/h
122 05-11-2020 14:25:00 4.2 C 6.25 g/m*3 4.2 C 3.2 km/h
123 05-11-2020 14:30:00 4.2 C 6.25 g/m*3 4.2 C 1.6 km/h
124 05-11-2020 14:35:00 4.3 C 6.29 g/m*3 4.3 C 4.8 km/h
125 05-11-2020 14:40:00 4.3 C 6.29 g/m*3 4.3 C 3.2 km/h
Sensor: Nr:Datum:Temp:Abs-Feuchte:Windchill:Wind:
Aussen-T/F 126 05-11-2020 14:45:00 4.2 C 6.25 g/m*3 4.2 C 4.8 km/h
127 05-11-2020 14:50:00 4.3 C 6.29 g/m*3 4.3 C 3.2 km/h
128 05-11-2020 14:55:00 4.3 C 6.29 g/m*3 4.3 C 0 km/h
129 05-11-2020 15:00:00 4.3 C 6.36 g/m*3 4.3 C 3.2 km/h
130 05-11-2020 15:05:00 4.3 C 6.36 g/m*3 4.3 C 3.2 km/h
131 05-11-2020 15:10:00 4.4 C 6.4 g/m*3 4.4 C 0 km/h
132 05-11-2020 15:15:00 4.5 C 6.44 g/m*3 4.5 C 3.2 km/h
133 05-11-2020 15:20:00 4.6 C 6.42 g/m*3 4.6 C 1.6 km/h
134 05-11-2020 15:25:00 4.5 C 6.38 g/m*3 4.5 C 4.8 km/h
135 05-11-2020 15:30:00 4.5 C 6.38 g/m*3 4.5 C 0 km/h
136 05-11-2020 15:35:00 4.5 C 6.38 g/m*3 4.5 C 4.8 km/h
137 05-11-2020 15:40:00 4.4 C 6.33 g/m*3 4.4 C 3.2 km/h
138 05-11-2020 15:45:00 4.4 C 6.33 g/m*3 4.4 C 0 km/h
139 05-11-2020 15:50:00 4.4 C 6.33 g/m*3 4.4 C 0 km/h
140 05-11-2020 15:55:00 4.4 C 6.33 g/m*3 4.4 C 0 km/h
141 05-11-2020 16:00:00 4.5 C 6.38 g/m*3 4.5 C 0 km/h
142 05-11-2020 16:05:00 4.5 C 6.38 g/m*3 4.5 C 0 km/h
143 05-11-2020 16:10:00 4.4 C 6.33 g/m*3 4.4 C 0 km/h
144 05-11-2020 16:15:00 4.4 C 6.33 g/m*3 4.4 C 0 km/h
145 05-11-2020 16:20:00 4.4 C 6.33 g/m*3 4.4 C 0 km/h
146 05-11-2020 16:25:00 4.4 C 6.33 g/m*3 4.4 C 0 km/h
147 05-11-2020 16:30:00 4.4 C 6.33 g/m*3 4.4 C 0 km/h
148 05-11-2020 16:35:00 4.4 C 6.33 g/m*3 4.4 C 0 km/h
149 05-11-2020 16:40:00 4.4 C 6.33 g/m*3 4.4 C 0 km/h
150 05-11-2020 16:45:00 4.3 C 6.29 g/m*3 4.3 C 0 km/h
Sensor: Nr:Datum:Temp:Abs-Feuchte:Windchill:Wind:
Aussen-T/F 151 05-11-2020 16:50:00 4.3 C 6.29 g/m*3 4.3 C 0 km/h
152 05-11-2020 16:55:00 4.3 C 6.29 g/m*3 4.3 C 0 km/h
153 05-11-2020 17:00:00 4.3 C 6.29 g/m*3 4.3 C 0 km/h
154 05-11-2020 17:05:00 4.3 C 6.29 g/m*3 4.3 C 0 km/h
155 05-11-2020 17:10:00 4.3 C 6.29 g/m*3 4.3 C 1.6 km/h
156 05-11-2020 17:15:00 4.3 C 6.29 g/m*3 4.3 C 0 km/h
157 05-11-2020 17:20:00 4.2 C 6.25 g/m*3 4.2 C 0 km/h
158 05-11-2020 17:25:00 4.2 C 6.25 g/m*3 4.2 C 0 km/h
159 05-11-2020 17:30:00 4.2 C 6.25 g/m*3 4.2 C 0 km/h
160 05-11-2020 17:35:00 4.1 C 6.21 g/m*3 4.1 C 0 km/h
161 05-11-2020 17:40:00 4.1 C 6.21 g/m*3 4.1 C 0 km/h
162 05-11-2020 17:45:00 4.1 C 6.21 g/m*3 4.1 C 0 km/h
163 05-11-2020 17:50:00 4.1 C 6.21 g/m*3 4.1 C 0 km/h
164 05-11-2020 17:55:00 4 C 6.17 g/m*3 4 C 3.2 km/h
165 05-11-2020 18:00:00 3.9 C 6.13 g/m*3 3.9 C 3.2 km/h
166 05-11-2020 18:05:00 3.9 C 6.13 g/m*3 3.9 C 0 km/h
167 05-11-2020 18:10:00 3.9 C 6.13 g/m*3 3.9 C 0 km/h
168 05-11-2020 18:15:00 3.9 C 6.13 g/m*3 3.9 C 0 km/h
169 05-11-2020 18:20:00 3.8 C 6.09 g/m*3 3.8 C 0 km/h
170 05-11-2020 18:25:00 3.8 C 6.09 g/m*3 3.8 C 0 km/h
171 05-11-2020 18:30:00 3.8 C 6.09 g/m*3 3.8 C 0 km/h
172 05-11-2020 18:35:00 3.8 C 6.09 g/m*3 3.8 C 1.6 km/h
173 05-11-2020 18:40:00 3.7 C 6.04 g/m*3 3.7 C 0 km/h
174 05-11-2020 18:45:00 3.7 C 6.04 g/m*3 3.7 C 0 km/h
175 05-11-2020 18:50:00 3.7 C 6.04 g/m*3 3.7 C 0 km/h
Sensor: Nr:Datum:Temp:Abs-Feuchte:Windchill:Wind:
Aussen-T/F 176 05-11-2020 18:55:00 3.6 C 6 g/m*3 3.6 C 0 km/h
177 05-11-2020 19:00:00 3.6 C 6 g/m*3 3.6 C 0 km/h
178 05-11-2020 19:05:00 3.5 C 5.96 g/m*3 3.5 C 0 km/h
179 05-11-2020 19:10:00 3.4 C 5.92 g/m*3 3.4 C 0 km/h
180 05-11-2020 19:15:00 3.4 C 5.92 g/m*3 3.4 C 0 km/h
181 05-11-2020 19:20:00 3.4 C 5.92 g/m*3 3.4 C 0 km/h
182 05-11-2020 19:25:00 3.3 C 5.88 g/m*3 3.3 C 0 km/h
183 05-11-2020 19:30:00 3.3 C 5.88 g/m*3 3.3 C 0 km/h
184 05-11-2020 19:35:00 3.3 C 5.88 g/m*3 3.3 C 0 km/h
185 05-11-2020 19:40:00 3.3 C 5.88 g/m*3 3.3 C 0 km/h
186 05-11-2020 19:45:00 3.4 C 5.92 g/m*3 3.4 C 0 km/h
187 05-11-2020 19:50:00 3.4 C 5.92 g/m*3 3.4 C 0 km/h
188 05-11-2020 19:55:00 3.4 C 5.92 g/m*3 3.4 C 0 km/h
189 05-11-2020 20:00:00 3.4 C 5.92 g/m*3 3.4 C 0 km/h
190 05-11-2020 20:05:00 3.4 C 5.92 g/m*3 3.4 C 0 km/h
191 05-11-2020 20:10:00 3.4 C 5.92 g/m*3 3.4 C 0 km/h
192 05-11-2020 20:15:00 3.4 C 5.92 g/m*3 3.4 C 0 km/h
193 05-11-2020 20:20:00 3.3 C 5.88 g/m*3 3.3 C 0 km/h
194 05-11-2020 20:25:00 3.3 C 5.88 g/m*3 3.3 C 0 km/h
195 05-11-2020 20:30:00 3.3 C 5.88 g/m*3 3.3 C 0 km/h
196 05-11-2020 20:35:00 3.2 C 5.85 g/m*3 3.2 C 0 km/h
197 05-11-2020 20:40:00 3.3 C 5.88 g/m*3 3.3 C 0 km/h
198 05-11-2020 20:45:00 3.3 C 5.88 g/m*3 3.3 C 0 km/h
199 05-11-2020 20:50:00 3.3 C 5.88 g/m*3 3.3 C 0 km/h
200 05-11-2020 20:55:00 3.3 C 5.88 g/m*3 3.3 C 0 km/h
Sensor: Nr:Datum:Temp:Abs-Feuchte:Windchill:Wind:
Aussen-T/F 201 05-11-2020 21:00:00 3.3 C 5.88 g/m*3 3.3 C 0 km/h
202 05-11-2020 21:05:00 3.3 C 5.88 g/m*3 3.3 C 0 km/h
203 05-11-2020 21:10:00 3.3 C 5.88 g/m*3 3.3 C 0 km/h
204 05-11-2020 21:15:00 3.3 C 5.88 g/m*3 3.3 C 1.6 km/h
205 05-11-2020 21:20:00 3.3 C 5.88 g/m*3 3.3 C 4.8 km/h
206 05-11-2020 21:25:00 3.3 C 5.88 g/m*3 3.3 C 3.2 km/h
207 05-11-2020 21:30:00 3.2 C 5.85 g/m*3 3.2 C 1.6 km/h
208 05-11-2020 21:35:00 3.2 C 5.85 g/m*3 3.2 C 0 km/h
209 05-11-2020 21:40:00 3.2 C 5.85 g/m*3 3.2 C 0 km/h
210 05-11-2020 21:45:00 3.2 C 5.85 g/m*3 3.2 C 0 km/h
211 05-11-2020 21:50:00 3.3 C 5.88 g/m*3 3.3 C 0 km/h
212 05-11-2020 21:55:00 3.3 C 5.88 g/m*3 3.3 C 0 km/h
213 05-11-2020 22:00:00 3.2 C 5.85 g/m*3 3.2 C 0 km/h
214 05-11-2020 22:05:00 3.2 C 5.85 g/m*3 3.2 C 0 km/h
215 05-11-2020 22:10:00 3.2 C 5.85 g/m*3 3.2 C 0 km/h
216 05-11-2020 22:15:00 3.1 C 5.81 g/m*3 3.1 C 0 km/h
217 05-11-2020 22:20:00 3.1 C 5.81 g/m*3 3.1 C 0 km/h
218 05-11-2020 22:25:00 3.2 C 5.85 g/m*3 3.2 C 0 km/h
219 05-11-2020 22:30:00 3.2 C 5.85 g/m*3 3.2 C 0 km/h
220 05-11-2020 22:35:00 3.2 C 5.85 g/m*3 3.2 C 0 km/h
221 05-11-2020 22:40:00 3.3 C 5.88 g/m*3 3.3 C 0 km/h
222 05-11-2020 22:45:00 3.3 C 5.88 g/m*3 3.3 C 0 km/h
223 05-11-2020 22:50:00 3.4 C 5.99 g/m*3 3.4 C 0 km/h
224 05-11-2020 22:55:00 3.4 C 5.99 g/m*3 3.4 C 0 km/h
225 05-11-2020 23:00:00 3.4 C 5.99 g/m*3 3.4 C 0 km/h
Sensor: Nr:Datum:Temp:Abs-Feuchte:Windchill:Wind:
Aussen-T/F 226 05-11-2020 23:05:00 3.4 C 5.99 g/m*3 3.4 C 3.2 km/h
227 05-11-2020 23:10:00 3.3 C 5.88 g/m*3 3.3 C 3.2 km/h
228 05-11-2020 23:15:00 3.3 C 5.88 g/m*3 3.3 C 0 km/h
229 05-11-2020 23:20:00 3.3 C 5.88 g/m*3 3.3 C 0 km/h
230 05-11-2020 23:25:00 3.3 C 5.88 g/m*3 3.3 C 0 km/h
231 05-11-2020 23:30:00 3.3 C 5.88 g/m*3 3.3 C 0 km/h
232 05-11-2020 23:35:00 3.3 C 5.88 g/m*3 3.3 C 0 km/h
233 05-11-2020 23:40:00 3.3 C 5.88 g/m*3 3.3 C 0 km/h
234 05-11-2020 23:45:00 3.3 C 5.88 g/m*3 3.3 C 0 km/h
235 05-11-2020 23:50:00 3.3 C 5.88 g/m*3 3.3 C 3.2 km/h
236 05-11-2020 23:55:00 3.3 C 5.88 g/m*3 3.3 C 0 km/h
237 06-11-2020 00:00:00 3.3 C 5.88 g/m*3 3.3 C 0 km/h
238 06-11-2020 00:05:00 3.3 C 5.88 g/m*3 3.3 C 3.2 km/h
239 06-11-2020 00:10:00 3.2 C 5.85 g/m*3 3.2 C 3.2 km/h
240 06-11-2020 00:15:00 3.2 C 5.85 g/m*3 3.2 C 0 km/h
241 06-11-2020 00:20:00 3.1 C 5.81 g/m*3 3.1 C 0 km/h
242 06-11-2020 00:25:00 3.1 C 5.81 g/m*3 3.1 C 0 km/h
243 06-11-2020 00:30:00 3.1 C 5.81 g/m*3 3.1 C 0 km/h
244 06-11-2020 00:35:00 3 C 5.77 g/m*3 3 C 0 km/h
245 06-11-2020 00:40:00 2.9 C 5.73 g/m*3 2.9 C 0 km/h
246 06-11-2020 00:45:00 2.9 C 5.73 g/m*3 2.9 C 0 km/h
247 06-11-2020 00:50:00 2.9 C 5.73 g/m*3 2.9 C 0 km/h
248 06-11-2020 00:55:00 2.9 C 5.73 g/m*3 2.9 C 1.6 km/h
249 06-11-2020 01:00:00 2.8 C 5.69 g/m*3 2.8 C 0 km/h
250 06-11-2020 01:05:00 2.8 C 5.69 g/m*3 2.8 C 3.2 km/h
Sensor: Nr:Datum:Temp:Abs-Feuchte:Windchill:Wind:
Aussen-T/F 251 06-11-2020 01:10:00 2.8 C 5.69 g/m*3 2.8 C 3.2 km/h
252 06-11-2020 01:15:00 2.7 C 5.65 g/m*3 2.7 C 0 km/h
253 06-11-2020 01:20:00 2.7 C 5.65 g/m*3 2.7 C 0 km/h
254 06-11-2020 01:25:00 2.7 C 5.65 g/m*3 2.7 C 0 km/h
255 06-11-2020 01:30:00 2.7 C 5.71 g/m*3 2.7 C 3.2 km/h
256 06-11-2020 01:35:00 2.7 C 5.65 g/m*3 2.7 C 3.2 km/h
257 06-11-2020 01:40:00 2.6 C 5.61 g/m*3 2.6 C 3.2 km/h
258 06-11-2020 01:45:00 2.6 C 5.61 g/m*3 2.6 C 3.2 km/h
259 06-11-2020 01:50:00 2.5 C 5.58 g/m*3 2.5 C 0 km/h
260 06-11-2020 01:55:00 2.5 C 5.58 g/m*3 2.5 C 0 km/h
261 06-11-2020 02:00:00 2.5 C 5.58 g/m*3 2.5 C 0 km/h
262 06-11-2020 02:05:00 2.6 C 5.61 g/m*3 2.6 C 0 km/h
263 06-11-2020 02:10:00 2.6 C 5.61 g/m*3 2.6 C 0 km/h
264 06-11-2020 02:15:00 2.6 C 5.61 g/m*3 2.6 C 0 km/h
265 06-11-2020 02:20:00 2.6 C 5.61 g/m*3 2.6 C 1.6 km/h
266 06-11-2020 02:25:00 2.6 C 5.67 g/m*3 2.6 C 3.2 km/h
267 06-11-2020 02:30:00 2.6 C 5.67 g/m*3 2.6 C 3.2 km/h
268 06-11-2020 02:35:00 2.6 C 5.67 g/m*3 2.6 C 4.8 km/h
269 06-11-2020 02:40:00 2.6 C 5.67 g/m*3 2.6 C 4.8 km/h
270 06-11-2020 02:45:00 2.5 C 5.63 g/m*3 2.5 C 0 km/h
271 06-11-2020 02:50:00 2.5 C 5.63 g/m*3 2.5 C 0 km/h
272 06-11-2020 02:55:00 2.5 C 5.63 g/m*3 2.5 C 0 km/h
273 06-11-2020 03:00:00 2.6 C 5.67 g/m*3 2.6 C 0 km/h
274 06-11-2020 03:05:00 2.7 C 5.65 g/m*3 2.7 C 0 km/h
275 06-11-2020 03:10:00 2.7 C 5.65 g/m*3 2.7 C 0 km/h
Sensor: Nr:Datum:Temp:Abs-Feuchte:Windchill:Wind:
Aussen-T/F 276 06-11-2020 03:15:00 2.7 C 5.65 g/m*3 2.7 C 0 km/h
277 06-11-2020 03:20:00 2.7 C 5.65 g/m*3 2.7 C 0 km/h
278 06-11-2020 03:25:00 2.7 C 5.65 g/m*3 2.7 C 3.2 km/h
279 06-11-2020 03:30:00 2.6 C 5.61 g/m*3 2.6 C 1.6 km/h
280 06-11-2020 03:35:00 2.6 C 5.61 g/m*3 2.6 C 0 km/h
281 06-11-2020 03:40:00 2.6 C 5.61 g/m*3 2.6 C 0 km/h
282 06-11-2020 03:45:00 2.6 C 5.61 g/m*3 2.6 C 0 km/h
283 06-11-2020 03:50:00 2.7 C 5.65 g/m*3 2.7 C 0 km/h
284 06-11-2020 03:55:00 2.7 C 5.65 g/m*3 2.7 C 1.6 km/h
285 06-11-2020 04:00:00 2.7 C 5.65 g/m*3 2.7 C 1.6 km/h
286 06-11-2020 04:05:00 2.6 C 5.61 g/m*3 2.6 C 1.6 km/h
287 06-11-2020 04:10:00 2.6 C 5.67 g/m*3 2.6 C 3.2 km/h
288 06-11-2020 04:15:00 2.5 C 5.63 g/m*3 2.5 C 0 km/h
289 06-11-2020 04:20:00 2.5 C 5.63 g/m*3 2.5 C 0 km/h
290 06-11-2020 04:25:00 2.4 C 5.6 g/m*3 2.4 C 0 km/h
291 06-11-2020 04:30:00 2.4 C 5.6 g/m*3 2.4 C 0 km/h
292 06-11-2020 04:35:00 2.4 C 5.6 g/m*3 2.4 C 0 km/h
293 06-11-2020 04:40:00 2.5 C 5.63 g/m*3 2.5 C 0 km/h
294 06-11-2020 04:45:00 2.5 C 5.63 g/m*3 2.5 C 0 km/h
295 06-11-2020 04:50:00 2.5 C 5.63 g/m*3 2.5 C 1.6 km/h
296 06-11-2020 04:55:00 2.4 C 5.6 g/m*3 2.4 C 1.6 km/h
297 06-11-2020 05:00:00 2.4 C 5.54 g/m*3 2.4 C 3.2 km/h
298 06-11-2020 05:05:00 2.4 C 5.54 g/m*3 2.4 C 3.2 km/h
299 06-11-2020 05:10:00 2.4 C 5.54 g/m*3 2.4 C 0 km/h
300 06-11-2020 05:15:00 2.4 C 5.54 g/m*3 2.4 C 0 km/h
Sensor: Nr:Datum:Temp:Abs-Feuchte:Windchill:Wind:
Aussen-T/F 301 06-11-2020 05:20:00 2.4 C 5.54 g/m*3 2.4 C 0 km/h
302 06-11-2020 05:25:00 2.4 C 5.6 g/m*3 2.4 C 0 km/h
303 06-11-2020 05:30:00 2.5 C 5.63 g/m*3 2.5 C 0 km/h
304 06-11-2020 05:35:00 2.5 C 5.63 g/m*3 2.5 C 0 km/h
305 06-11-2020 05:40:00 2.6 C 5.67 g/m*3 2.6 C 0 km/h
306 06-11-2020 05:45:00 2.6 C 5.61 g/m*3 2.6 C 0 km/h
307 06-11-2020 05:50:00 2.6 C 5.61 g/m*3 2.6 C 1.6 km/h
308 06-11-2020 05:55:00 2.6 C 5.67 g/m*3 2.6 C 0 km/h
309 06-11-2020 06:00:00 2.6 C 5.67 g/m*3 2.6 C 0 km/h
310 06-11-2020 06:05:00 2.6 C 5.67 g/m*3 2.6 C 0 km/h
311 06-11-2020 06:10:00 2.6 C 5.67 g/m*3 2.6 C 0 km/h
312 06-11-2020 06:15:00 2.6 C 5.67 g/m*3 2.6 C 0 km/h
313 06-11-2020 06:20:00 2.6 C 5.61 g/m*3 2.6 C 0 km/h
314 06-11-2020 06:25:00 2.7 C 5.65 g/m*3 2.7 C 0 km/h
315 06-11-2020 06:30:00 2.6 C 5.67 g/m*3 2.6 C 0 km/h
316 06-11-2020 06:35:00 2.6 C 5.67 g/m*3 2.6 C 0 km/h
317 06-11-2020 06:40:00 2.6 C 5.61 g/m*3 2.6 C 0 km/h
318 06-11-2020 06:45:00 2.7 C 5.71 g/m*3 2.7 C 1.6 km/h
319 06-11-2020 06:50:00 2.6 C 5.61 g/m*3 2.6 C 0 km/h
320 06-11-2020 06:55:00 2.6 C 5.67 g/m*3 2.6 C 1.6 km/h
321 06-11-2020 07:00:00 2.6 C 5.67 g/m*3 2.6 C 0 km/h
322 06-11-2020 07:05:00 2.6 C 5.67 g/m*3 2.6 C 0 km/h
323 06-11-2020 07:10:00 2.6 C 5.67 g/m*3 2.6 C 0 km/h
324 06-11-2020 07:15:00 2.6 C 5.67 g/m*3 2.6 C 0 km/h
325 06-11-2020 07:20:00 2.6 C 5.67 g/m*3 2.6 C 0 km/h
Sensor: Nr:Datum:Temp:Abs-Feuchte:Windchill:Wind:
Aussen-T/F 326 06-11-2020 07:25:00 2.6 C 5.67 g/m*3 2.6 C 3.2 km/h
327 06-11-2020 07:30:00 2.6 C 5.67 g/m*3 2.6 C 0 km/h
328 06-11-2020 07:35:00 2.5 C 5.63 g/m*3 2.5 C 1.6 km/h
329 06-11-2020 07:40:00 2.5 C 5.63 g/m*3 2.5 C 0 km/h
330 06-11-2020 07:45:00 2.5 C 5.63 g/m*3 2.5 C 0 km/h
331 06-11-2020 07:50:00 2.4 C 5.6 g/m*3 2.4 C 0 km/h
332 06-11-2020 07:55:00 2.4 C 5.6 g/m*3 2.4 C 0 km/h
333 06-11-2020 08:00:00 2.4 C 5.6 g/m*3 2.4 C 3.2 km/h
334 06-11-2020 08:05:00 2.4 C 5.6 g/m*3 2.4 C 0 km/h
335 06-11-2020 08:10:00 2.4 C 5.6 g/m*3 2.4 C 0 km/h
336 06-11-2020 08:15:00 2.4 C 5.6 g/m*3 2.4 C 0 km/h
337 06-11-2020 08:20:00 2.5 C 5.63 g/m*3 2.5 C 0 km/h
338 06-11-2020 08:25:00 2.6 C 5.67 g/m*3 2.6 C 0 km/h
339 06-11-2020 08:30:00 2.6 C 5.67 g/m*3 2.6 C 0 km/h
340 06-11-2020 08:35:00 2.6 C 5.67 g/m*3 2.6 C 0 km/h
341 06-11-2020 08:40:00 2.6 C 5.67 g/m*3 2.6 C 0 km/h
342 06-11-2020 08:45:00 2.6 C 5.67 g/m*3 2.6 C 0 km/h
343 06-11-2020 08:50:00 2.7 C 5.71 g/m*3 2.7 C 0 km/h
344 06-11-2020 08:55:00 2.7 C 5.71 g/m*3 2.7 C 0 km/h
345 06-11-2020 09:00:00 2.7 C 5.71 g/m*3 2.7 C 0 km/h
346 06-11-2020 09:05:00 2.8 C 5.75 g/m*3 2.8 C 0 km/h
347 06-11-2020 09:10:00 2.8 C 5.75 g/m*3 2.8 C 0 km/h
348 06-11-2020 09:15:00 2.9 C 5.79 g/m*3 2.9 C 0 km/h
349 06-11-2020 09:20:00 2.9 C 5.79 g/m*3 2.9 C 0 km/h
350 06-11-2020 09:25:00 3.1 C 5.87 g/m*3 3.1 C 0 km/h
Sensor: Nr:Datum:Temp:Abs-Feuchte:Windchill:Wind:
Aussen-T/F 351 06-11-2020 09:30:00 3.1 C 5.87 g/m*3 3.1 C 0 km/h
352 06-11-2020 09:35:00 3.1 C 5.87 g/m*3 3.1 C 0 km/h
353 06-11-2020 09:40:00 3.2 C 5.91 g/m*3 3.2 C 0 km/h
354 06-11-2020 09:45:00 3.2 C 5.91 g/m*3 3.2 C 0 km/h
355 06-11-2020 09:50:00 3.3 C 5.95 g/m*3 3.3 C 0 km/h
356 06-11-2020 09:55:00 3.3 C 5.95 g/m*3 3.3 C 0 km/h
357 06-11-2020 10:00:00 3.4 C 5.99 g/m*3 3.4 C 0 km/h
358 06-11-2020 10:05:00 3.4 C 5.99 g/m*3 3.4 C 0 km/h
359 06-11-2020 10:10:00 3.4 C 5.99 g/m*3 3.4 C 1.6 km/h
360 06-11-2020 10:15:00 3.4 C 5.99 g/m*3 3.4 C 1.6 km/h
361 06-11-2020 10:20:00 3.4 C 5.99 g/m*3 3.4 C 0 km/h
362 06-11-2020 10:25:00 3.6 C 6.07 g/m*3 3.6 C 0 km/h
363 06-11-2020 10:30:00 3.7 C 6.11 g/m*3 3.7 C 0 km/h
364 06-11-2020 10:35:00 3.8 C 6.15 g/m*3 3.8 C 0 km/h
365 06-11-2020 10:40:00 3.9 C 6.19 g/m*3 3.9 C 1.6 km/h
366 06-11-2020 10:45:00 3.8 C 6.15 g/m*3 3.8 C 1.6 km/h
367 06-11-2020 10:50:00 3.8 C 6.15 g/m*3 3.8 C 0 km/h
368 06-11-2020 10:55:00 3.8 C 6.15 g/m*3 3.8 C 0 km/h
369 06-11-2020 11:00:00 3.9 C 6.19 g/m*3 3.9 C 3.2 km/h
370 06-11-2020 11:05:00 4 C 6.23 g/m*3 4 C 4.8 km/h
371 06-11-2020 11:10:00 4 C 6.23 g/m*3 4 C 3.2 km/h
372 06-11-2020 11:15:00 4.1 C 6.27 g/m*3 4.1 C 3.2 km/h
373 06-11-2020 11:20:00 4.1 C 6.27 g/m*3 4.1 C 3.2 km/h
374 06-11-2020 11:25:00 4.1 C 6.27 g/m*3 4.1 C 0 km/h
375 06-11-2020 11:30:00 4.2 C 6.31 g/m*3 4.2 C 0 km/h
Sensor: Nr:Datum:Temp:Abs-Feuchte:Windchill:Wind:
Aussen-T/F 376 06-11-2020 11:35:00 4.2 C 6.31 g/m*3 4.2 C 0 km/h
377 06-11-2020 11:40:00 4.2 C 6.31 g/m*3 4.2 C 0 km/h
378 06-11-2020 11:45:00 4.2 C 6.31 g/m*3 4.2 C 0 km/h
379 06-11-2020 11:50:00 4.2 C 6.31 g/m*3 4.2 C 0 km/h
380 06-11-2020 11:55:00 4.2 C 6.31 g/m*3 4.2 C 0 km/h
381 06-11-2020 12:00:00 4.3 C 6.36 g/m*3 4.3 C 0 km/h
382 06-11-2020 12:05:00 4.3 C 6.36 g/m*3 4.3 C 0 km/h
383 06-11-2020 12:10:00 4.3 C 6.36 g/m*3 4.3 C 1.6 km/h
384 06-11-2020 12:15:00 4.3 C 6.36 g/m*3 4.3 C 3.2 km/h
385 06-11-2020 12:20:00 4.3 C 6.36 g/m*3 4.3 C 3.2 km/h
386 06-11-2020 12:25:00 4.3 C 6.36 g/m*3 4.3 C 3.2 km/h
387 06-11-2020 12:30:00 4.3 C 6.36 g/m*3 4.3 C 4.8 km/h
388 06-11-2020 12:35:00 4.3 C 6.36 g/m*3 4.3 C 3.2 km/h
389 06-11-2020 12:40:00 4.3 C 6.36 g/m*3 4.3 C 0 km/h
390 06-11-2020 12:45:00 4.4 C 6.4 g/m*3 4.4 C 0 km/h
391 06-11-2020 12:50:00 4.5 C 6.44 g/m*3 4.5 C 0 km/h
392 06-11-2020 12:55:00 4.6 C 6.48 g/m*3 4.6 C 0 km/h
393 06-11-2020 13:00:00 4.7 C 6.53 g/m*3 4.7 C 0 km/h
394 06-11-2020 13:05:00 4.7 C 6.53 g/m*3 4.7 C 0 km/h
395 06-11-2020 13:10:00 4.8 C 6.57 g/m*3 4.8 C 0 km/h
396 06-11-2020 13:15:00 4.9 C 6.62 g/m*3 4.9 C 0 km/h
397 06-11-2020 13:20:00 5 C 6.66 g/m*3 5 C 0 km/h
398 06-11-2020 13:25:00 5.1 C 6.7 g/m*3 5.1 C 3.2 km/h
399 06-11-2020 13:30:00 5.2 C 6.75 g/m*3 5.2 C 3.2 km/h
400 06-11-2020 13:35:00 5.2 C 6.75 g/m*3 5.2 C 3.2 km/h
Sensor: Nr:Datum:Temp:Abs-Feuchte:Windchill:Wind:
Aussen-T/F 401 06-11-2020 13:40:00 5.3 C 6.79 g/m*3 5.3 C 3.2 km/h
402 06-11-2020 13:45:00 5.4 C 6.84 g/m*3 5.4 C 3.2 km/h
403 06-11-2020 13:50:00 5.5 C 6.88 g/m*3 5.5 C 4.8 km/h
404 06-11-2020 13:55:00 5.6 C 6.93 g/m*3 5.6 C 0 km/h
405 06-11-2020 14:00:00 5.6 C 6.93 g/m*3 5.6 C 0 km/h
406 06-11-2020 14:05:00 5.7 C 6.97 g/m*3 5.7 C 0 km/h
407 06-11-2020 14:10:00 5.8 C 7.02 g/m*3 5.8 C 0 km/h
408 06-11-2020 14:15:00 5.8 C 7.02 g/m*3 5.8 C 3.2 km/h
409 06-11-2020 14:20:00 5.9 C 7.07 g/m*3 4.63 C 6.4 km/h
410 06-11-2020 14:25:00 6.1 C 7.16 g/m*3 4.86 C 6.4 km/h
411 06-11-2020 14:30:00 6.1 C 7.16 g/m*3 4.86 C 6.4 km/h
412 06-11-2020 14:35:00 6.2 C 7.21 g/m*3 6.2 C 4.8 km/h
413 06-11-2020 14:40:00 6.2 C 7.21 g/m*3 6.2 C 4.8 km/h
414 06-11-2020 14:45:00 6.2 C 7.21 g/m*3 6.2 C 3.2 km/h
415 06-11-2020 14:50:00 6.2 C 7.21 g/m*3 6.2 C 4.8 km/h
416 06-11-2020 14:55:00 6.3 C 7.25 g/m*3 5.1 C 6.4 km/h
417 06-11-2020 15:00:00 6.3 C 7.25 g/m*3 6.3 C 3.2 km/h
418 06-11-2020 15:05:00 6.3 C 7.25 g/m*3 6.3 C 4.8 km/h
419 06-11-2020 15:10:00 6.4 C 7.3 g/m*3 6.4 C 4.8 km/h
420 06-11-2020 15:15:00 6.4 C 7.3 g/m*3 6.4 C 4.8 km/h
421 06-11-2020 15:20:00 6.4 C 7.3 g/m*3 6.4 C 4.8 km/h
422 06-11-2020 15:25:00 6.4 C 7.3 g/m*3 6.4 C 3.2 km/h
423 06-11-2020 15:30:00 6.4 C 7.3 g/m*3 6.4 C 0 km/h
424 06-11-2020 15:35:00 6.4 C 7.3 g/m*3 6.4 C 3.2 km/h
425 06-11-2020 15:40:00 6.4 C 7.3 g/m*3 6.4 C 4.8 km/h
Sensor: Nr:Datum:Temp:Abs-Feuchte:Windchill:Wind:
Aussen-T/F 426 06-11-2020 15:45:00 6.3 C 7.25 g/m*3 6.3 C 4.8 km/h
427 06-11-2020 15:50:00 6.3 C 7.25 g/m*3 6.3 C 4.8 km/h
428 06-11-2020 15:55:00 6.2 C 7.21 g/m*3 6.2 C 1.6 km/h
429 06-11-2020 16:00:00 6.1 C 7.16 g/m*3 6.1 C 3.2 km/h
430 06-11-2020 16:05:00 6.1 C 7.16 g/m*3 4.86 C 6.4 km/h
431 06-11-2020 16:10:00 6 C 7.11 g/m*3 6 C 3.2 km/h
432 06-11-2020 16:15:00 5.9 C 7.07 g/m*3 5.9 C 3.2 km/h
433 06-11-2020 16:20:00 5.8 C 7.02 g/m*3 5.8 C 1.6 km/h
434 06-11-2020 16:25:00 5.7 C 6.97 g/m*3 5.7 C 3.2 km/h
435 06-11-2020 16:30:00 5.6 C 6.93 g/m*3 5.6 C 4.8 km/h
436 06-11-2020 16:35:00 5.5 C 6.88 g/m*3 5.5 C 3.2 km/h
437 06-11-2020 16:40:00 5.4 C 6.84 g/m*3 5.4 C 4.8 km/h
438 06-11-2020 16:45:00 5.3 C 6.79 g/m*3 5.3 C 4.8 km/h
439 06-11-2020 16:50:00 5.2 C 6.75 g/m*3 5.2 C 1.6 km/h
440 06-11-2020 16:55:00 5.2 C 6.75 g/m*3 5.2 C 3.2 km/h
441 06-11-2020 17:00:00 5.1 C 6.7 g/m*3 5.1 C 4.8 km/h
442 06-11-2020 17:05:00 4.9 C 6.55 g/m*3 4.9 C 4.8 km/h
443 06-11-2020 17:10:00 4.8 C 6.5 g/m*3 3.36 C 6.4 km/h
444 06-11-2020 17:15:00 4.7 C 6.53 g/m*3 3.25 C 6.4 km/h
445 06-11-2020 17:20:00 4.6 C 6.42 g/m*3 4.6 C 4.8 km/h
446 06-11-2020 17:25:00 4.5 C 6.38 g/m*3 3.02 C 6.4 km/h
447 06-11-2020 17:30:00 4.4 C 6.33 g/m*3 4.4 C 1.6 km/h
448 06-11-2020 17:35:00 4.4 C 6.33 g/m*3 4.4 C 3.2 km/h
449 06-11-2020 17:40:00 4.3 C 6.29 g/m*3 4.3 C 3.2 km/h
450 06-11-2020 17:45:00 4.3 C 6.29 g/m*3 4.3 C 3.2 km/h
Sensor: Nr:Datum:Temp:Abs-Feuchte:Windchill:Wind:
Aussen-T/F 451 06-11-2020 17:50:00 4.1 C 6.21 g/m*3 4.1 C 3.2 km/h
452 06-11-2020 17:55:00 3.9 C 6.13 g/m*3 3.9 C 1.6 km/h
453 06-11-2020 18:00:00 3.9 C 6.13 g/m*3 3.9 C 1.6 km/h
454 06-11-2020 18:05:00 3.8 C 6.09 g/m*3 3.8 C 3.2 km/h
455 06-11-2020 18:10:00 3.7 C 6.04 g/m*3 3.7 C 3.2 km/h
456 06-11-2020 18:15:00 3.6 C 6 g/m*3 3.6 C 4.8 km/h
457 06-11-2020 18:20:00 3.6 C 6 g/m*3 3.6 C 0 km/h
458 06-11-2020 18:25:00 3.4 C 5.92 g/m*3 3.4 C 0 km/h
459 06-11-2020 18:30:00 3.3 C 5.88 g/m*3 3.3 C 0 km/h
460 06-11-2020 18:35:00 3.3 C 5.88 g/m*3 3.3 C 0 km/h
461 06-11-2020 18:40:00 3.2 C 5.85 g/m*3 3.2 C 0 km/h
462 06-11-2020 18:45:00 3.1 C 5.75 g/m*3 3.1 C 0 km/h
463 06-11-2020 18:50:00 2.9 C 5.67 g/m*3 2.9 C 0 km/h
464 06-11-2020 18:55:00 2.9 C 5.67 g/m*3 2.9 C 0 km/h
465 06-11-2020 19:00:00 2.8 C 5.63 g/m*3 2.8 C 0 km/h
466 06-11-2020 19:05:00 2.7 C 5.59 g/m*3 2.7 C 0 km/h
467 06-11-2020 19:10:00 2.7 C 5.59 g/m*3 2.7 C 0 km/h
468 06-11-2020 19:15:00 2.6 C 5.56 g/m*3 2.6 C 0 km/h
469 06-11-2020 19:20:00 2.5 C 5.52 g/m*3 2.5 C 0 km/h
470 06-11-2020 19:25:00 2.5 C 5.52 g/m*3 2.5 C 0 km/h
471 06-11-2020 19:30:00 2.4 C 5.48 g/m*3 2.4 C 0 km/h
472 06-11-2020 19:35:00 2.3 C 5.44 g/m*3 2.3 C 0 km/h
473 06-11-2020 19:40:00 2.2 C 5.41 g/m*3 2.2 C 0 km/h
474 06-11-2020 19:45:00 2.2 C 5.41 g/m*3 2.2 C 0 km/h
475 06-11-2020 19:50:00 2.1 C 5.37 g/m*3 2.1 C 0 km/h
Sensor: Nr:Datum:Temp:Abs-Feuchte:Windchill:Wind:
Aussen-T/F 476 06-11-2020 19:55:00 2.1 C 5.37 g/m*3 2.1 C 0 km/h
477 06-11-2020 20:00:00 2.1 C 5.37 g/m*3 2.1 C 0 km/h
478 06-11-2020 20:05:00 2 C 5.33 g/m*3 2 C 0 km/h
479 06-11-2020 20:10:00 2 C 5.33 g/m*3 2 C 0 km/h
480 06-11-2020 20:15:00 1.9 C 5.3 g/m*3 1.9 C 0 km/h
481 06-11-2020 20:20:00 1.9 C 5.3 g/m*3 1.9 C 0 km/h
482 06-11-2020 20:25:00 1.9 C 5.3 g/m*3 1.9 C 0 km/h
483 06-11-2020 20:30:00 1.9 C 5.3 g/m*3 1.9 C 0 km/h
484 06-11-2020 20:35:00 1.9 C 5.3 g/m*3 1.9 C 0 km/h
485 06-11-2020 20:40:00 1.8 C 5.26 g/m*3 1.8 C 0 km/h
486 06-11-2020 20:45:00 1.8 C 5.26 g/m*3 1.8 C 0 km/h
487 06-11-2020 20:50:00 1.7 C 5.23 g/m*3 1.7 C 0 km/h
488 06-11-2020 20:55:00 1.6 C 5.19 g/m*3 1.6 C 0 km/h
489 06-11-2020 21:00:00 1.6 C 5.19 g/m*3 1.6 C 0 km/h
490 06-11-2020 21:05:00 1.6 C 5.19 g/m*3 1.6 C 0 km/h
491 06-11-2020 21:10:00 1.5 C 5.16 g/m*3 1.5 C 0 km/h
492 06-11-2020 21:15:00 1.5 C 5.16 g/m*3 1.5 C 0 km/h
493 06-11-2020 21:20:00 1.4 C 5.12 g/m*3 1.4 C 0 km/h
494 06-11-2020 21:25:00 1.4 C 5.12 g/m*3 1.4 C 0 km/h
495 06-11-2020 21:30:00 1.4 C 5.12 g/m*3 1.4 C 0 km/h
496 06-11-2020 21:35:00 1.4 C 5.12 g/m*3 1.4 C 0 km/h
497 06-11-2020 21:40:00 1.5 C 5.16 g/m*3 1.5 C 0 km/h
498 06-11-2020 21:45:00 1.5 C 5.16 g/m*3 1.5 C 0 km/h
499 06-11-2020 21:50:00 1.4 C 5.12 g/m*3 1.4 C 0 km/h
500 06-11-2020 21:55:00 1.3 C 5.09 g/m*3 1.3 C 0 km/h
Sensor: Nr:Datum:Temp:Abs-Feuchte:Windchill:Wind:
Aussen-T/F 501 06-11-2020 22:00:00 1.3 C 5.09 g/m*3 1.3 C 0 km/h
502 06-11-2020 22:05:00 1.3 C 5.09 g/m*3 1.3 C 0 km/h
503 06-11-2020 22:10:00 1.3 C 5.09 g/m*3 1.3 C 0 km/h
504 06-11-2020 22:15:00 1.3 C 5.09 g/m*3 1.3 C 0 km/h
505 06-11-2020 22:20:00 1.3 C 5.09 g/m*3 1.3 C 0 km/h
506 06-11-2020 22:25:00 1.3 C 5.09 g/m*3 1.3 C 0 km/h
507 06-11-2020 22:30:00 1.3 C 5.09 g/m*3 1.3 C 0 km/h
508 06-11-2020 22:35:00 1.2 C 5.05 g/m*3 1.2 C 0 km/h
509 06-11-2020 22:40:00 1.2 C 5.05 g/m*3 1.2 C 0 km/h
510 06-11-2020 22:45:00 1.2 C 5.05 g/m*3 1.2 C 0 km/h
511 06-11-2020 22:50:00 1.1 C 5.02 g/m*3 1.1 C 0 km/h
512 06-11-2020 22:55:00 1.1 C 5.02 g/m*3 1.1 C 0 km/h
513 06-11-2020 23:00:00 1.1 C 5.02 g/m*3 1.1 C 0 km/h
514 06-11-2020 23:05:00 1.1 C 5.02 g/m*3 1.1 C 0 km/h
515 06-11-2020 23:10:00 1 C 4.98 g/m*3 1 C 0 km/h
516 06-11-2020 23:15:00 1 C 4.98 g/m*3 1 C 0 km/h
517 06-11-2020 23:20:00 0.9 C 4.95 g/m*3 0.9 C 0 km/h
518 06-11-2020 23:25:00 0.8 C 4.91 g/m*3 0.8 C 0 km/h
519 06-11-2020 23:30:00 0.8 C 4.91 g/m*3 0.8 C 0 km/h
520 06-11-2020 23:35:00 0.8 C 4.91 g/m*3 0.8 C 0 km/h
521 06-11-2020 23:40:00 0.8 C 4.91 g/m*3 0.8 C 0 km/h
522 06-11-2020 23:45:00 0.8 C 4.91 g/m*3 0.8 C 0 km/h
523 06-11-2020 23:50:00 0.8 C 4.91 g/m*3 0.8 C 0 km/h
524 06-11-2020 23:55:00 0.8 C 4.91 g/m*3 0.8 C 0 km/h

Legende:
   Min
   Max


Maximal/Minimal-Werte vom 14.04.2020 - 16.05.2020

Sensor Min Max Avg
Temp
(Aussen-T/F)
-0.1 °C
15-04-2020  06:55:00
26.2 °C
17-04-2020  18:05:00
11.98 °C

Die Daten stammen von einer Davis Vantage Pro 2 Wetter-Station und werden unter Linux mit der Software wview2wettercgi und aufbereitet. Alle Angaben erfolgen ohne Gewähr für ihre Vollständigkeit oder Richtigkeit.
Kontakt: Rainer Krienke krienke@uni-koblenz.de . Meine Webseiten an der Uni Koblenz oder privat.
Version: $Revision: 0.78 $